Regional Weather Roundup
Issued by NWS

Home | Current Version | Previous Version | Text Only | Print | Product List | Glossary On
Versions: 1 2 3 4 5 6 7 8 9 10 11 12 13 14 15 16 17 18 19 20 21 22 23 24 25 26 27 28 29 30 31 32 33 34 35 36 37 38 39 40 41 42 43 44 45 46 47 48 49 50
000
ASUS43 KMPX 201401
RWRMN
WEATHER ROUNDUP FOR MINNESOTA
NATIONAL WEATHER SERVICE TWIN CITIES/CHANHASSEN MN
900 AM CDT MON OCT 20 2014


NOTE: "FAIR" INDICATES FEW OR NO CLOUDS BELOW 12,000 FEET WITH NO
SIGNIFICANT WEATHER AND/OR OBSTRUCTIONS TO VISIBILITY. N/A MEANS
CURRENT SKY AND/OR WEATHER CONDITIONS ARE NOT AVAILABLE.

MNZ060>063-068>070-201500-
   Twin Cities Metro

CITY           SKY/WX    TMP DP  RH WIND       PRES   REMARKS
TWIN CITIES    SUNNY     50  42  74 NW8       29.99R
ST PAUL        SUNNY     49  44  83 NW7       30.00R
CRYSTAL        SUNNY     51  42  71 NW9       29.98R
LAKEVILLE      SUNNY     48  43  81 NW7       29.99R
EDEN PRAIRIE   SUNNY     51  43  74 NW9       29.98R
SOUTH ST PAUL  SUNNY     51  43  73 NW5       29.98R
LAKE ELMO      FAIR      48  43  81 NW6       29.99R
$$
MNZ001>005-007-008-013>017-022>024-027-028-201500-
   Northwest Minnesota

CITY           SKY/WX    TMP DP  RH WIND       PRES   REMARKS
BEMIDJI        SUNNY     39  38  96 W6        30.02R
HALLOCK        FOG       34  32  93 N3        30.06R VSB<1/4
ROSEAU         CLOUDY    43  37  81 NW5       30.03R
WARROAD        CLOUDY    43  37  81 N5        30.03R
THIEF RVR FALL PTCLDY    37  36  93 NW5       30.05R
CROOKSTON      CLEAR     34  32  93 NW3       30.07R
FOSSTON        FOG       34  30  86 CALM      30.04R VSB 1/2
DETROIT LAKES  SUNNY     41  37  87 NW3       30.05R
MOORHEAD       SUNNY     39  39 100 CALM      30.07R
PARK RAPIDS    SUNNY     40  38  93 W3        30.02R
MAHNOMEN       FAIR      32  32  99 SW3       30.03R
$$
MNZ006-009>011-018-025>026-201500-
   North Central Minnesota

CITY           SKY/WX    TMP DP  RH WIND       PRES   REMARKS
BAUDETTE       CLOUDY    45  41  86 N9        30.01R
FLAG ISLAND    CLOUDY    45  39  81 N13       30.01R
INTL FALLS     CLOUDY    45  36  70 N14       29.98R
WASKISH        FOG       39  39 100 NW9       30.01R VSB 3/4
BIG FORK       CLOUDY    43  39  87 NW3       29.99R
LONGVILLE      SUNNY     43  43 100 NW5       30.00R
GRAND RAPIDS   CLOUDY    43  39  87 NW8       29.98R
CRANE LAKE     DRIZZLE   43  43 100 NW6       29.98R
ORR            CLOUDY    43  37  81 NW5       29.94R
COOK           CLOUDY    43  43 100 W5        29.97R
WALKER         FAIR      38  37  97 W3        30.00R
$$
MNZ012-019>021-037-201500-
   Northeast Minnesota

CITY           SKY/WX    TMP DP  RH WIND       PRES   REMARKS
DULUTH         PTSUNNY   45  40  82 NW7       29.94R
ELY            CLOUDY    45  39  81 N5        29.94R
HIBBING        CLOUDY    45  40  82 NW7       29.96R
EVELETH        CLOUDY    43  41  93 W5        29.96R FOG
DULUTH HARBOR  CLOUDY    48  43  81 NW9       29.96R
TWO HARBORS    CLOUDY    48  34  57 W3        29.92R
SILVER BAY     SUNNY     48  39  71 NW6       29.91R
GRAND MARAIS     N/A     50  42  74 W3        29.90R
G MARAIS ARPRT CLOUDY    43  37  81 NW5       29.89R
$$
MNZ029>031-032-039>041-046>048-054>057-064-201500-
   West Central Minnesota

CITY           SKY/WX    TMP DP  RH WIND       PRES   REMARKS
FERGUS FALLS   SUNNY     37  34  87 CALM      30.07R
WHEATON        SUNNY     43  37  81 W5        30.09R
MORRIS         SUNNY     39  37  93 NW5       30.05R
ALEXANDRIA     SUNNY     48  41  76 NW8       30.04R
ELBOW LAKE     FAIR      38  35  91 NW3       30.05R
WADENA         SUNNY     41  37  87 NW6       30.03R
GLENWOOD       SUNNY     46  41  81 NW6       30.04R
APPLETON       SUNNY     43  39  87 NW3       30.06R
BENSON         SUNNY     41  39  93 N6        30.05R
ORTONVILLE     SUNNY     46  37  71 NW8       30.06R
MADISON        SUNNY     46  39  76 NW6       30.06R
WILLMAR        FAIR      43  37  81 NW8       30.05R
$$
MNZ033>034-036-042>043-049>051-058-059-201500-
   Central Minnesota

CITY           SKY/WX    TMP DP  RH WIND       PRES   REMARKS
ST CLOUD       SUNNY     50  42  74 NW6       30.01R
SAUK CENTRE    FAIR      44  40  88 NW7       30.03R
PAYNESVILLE    SUNNY     41  39  91 SW5       30.03R
AITKIN         SUNNY     46  41  81 NW5       29.98R
PINE RIVER     SUNNY     43  39  87 CALM      30.04R
BRAINERD       MOSUNNY   46  41  82 N8        30.01R
STAPLES        SUNNY     43  41  93 NW5       30.02R
LONG PRAIRIE   FAIR      45  39  81 NW3       30.03R
LITTLE FALLS   SUNNY     43  41  93 CALM      30.01S
LITCHFIELD     SUNNY     48  43  81 NW6       30.02R
BUFFALO        SUNNY     48  41  78 NW6       30.01R
MAPLE LAKE     SUNNY     48  44  83 NW7       30.02R
$$
MNZ037-044-045-052-053-201500-
   East Central Minnesota

CITY           SKY/WX    TMP DP  RH WIND       PRES   REMARKS
PRINCETON      SUNNY     48  43  81 NW5       30.00R
MORA           SUNNY     45  43  93 NW6       29.99S
CAMBRIDGE      SUNNY     48  39  71 NW5       29.97R
RUSH CITY      SUNNY     45  43  92 CALM      29.98R
MOOSE LAKE     SUNNY     45  39  81 NW7       29.96R
HINCKLEY       FAIR      46  43  87 NW10      29.97R
CLOQUET        SUNNY     43  39  87 NW6       29.95S
$$
MNZ071>073-080-081-089-090-097-098-201500-
   Southwest Minnesota

CITY           SKY/WX    TMP DP  RH WIND       PRES   REMARKS
MONTEVIDEO     SUNNY     46  41  81 NW8       30.06R
GRANITE FALLS  SUNNY     43  39  86 W9        30.07R
CANBY          SUNNY     47  41  78 NW7       30.08R
MARSHALL       SUNNY     46  37  71 NW7       30.06R
REDWOOD FALLS  SUNNY     45  38  76 NW8       30.04R
OLIVIA         SUNNY     43  37  81 NW7       30.03R
PIPESTONE      SUNNY     45  37  76 CALM      30.07R
WINDOM         SUNNY     48  39  71 NW8       30.05R
WORTHINGTON    SUNNY     48  39  71 NW9       30.08R
JACKSON        SUNNY     48  37  66 NW12      30.05R
TRACY          SUNNY     50  40  68 NW7       30.06R
SLAYTON        SUNNY     46  39  76 CALM      30.07R
$$
MNZ065>067-074>077-082>085-091>093-201500-
   South Central Minnesota

CITY           SKY/WX    TMP DP  RH WIND       PRES   REMARKS
MANKATO        SUNNY     46  37  71 W6        30.01R
NEW ULM        SUNNY     43  39  87 W9        30.03R
ST JAMES       SUNNY     48  39  71 W9        30.04R
FAIRMONT       SUNNY     48  37  66 NW14      30.03R
GLENCOE        SUNNY     47  42  82 NW6       30.00R
FARIBAULT      SUNNY     48  43  81 W5        29.99S
OWATONNA       SUNNY     45  43  93 CALM      29.99S
WASECA         SUNNY     41  37  87 CALM      30.01S
ALBERT LEA     SUNNY     46  41  81 W6        30.00R
$$
MNZ078>079-086>088-094>096-201500-
   Southeast Minnesota

CITY           SKY/WX    TMP DP  RH WIND       PRES   REMARKS
ROCHESTER      SUNNY     47  42  83 NW5       29.98R
RED WING       SUNNY     48  45  87 W5        29.97R
STANTON        SUNNY     46  42  84 CALM      29.97R
DODGE CENTER   SUNNY     50  43  76 NW10      29.98R
WINONA         SUNNY     48  43  81 NW5       29.96R
AUSTIN         SUNNY     46  41  81 W8        29.99R
PRESTON        SUNNY     46  41  83 NW9       29.98R
$$
ABBREVIATIONS USED IN REMARKS
   TC - TEMPERATURES IN CELSIUS
  WCI - WIND CHILL INDEX
   HX - HEAT INDEX
  VSB - VISIBILITY
$$



USA.gov is the U.S. government's official web portal to all federal, state and local government web resources and services.